Location: Dumpton Point
(51.3500°N, 1.4433°E)
Time: 05:55:52
(UTC+00:00)

Altair - Pass Details

Date: 07 October 2022
Orbit: 1501 x 1682 km, 47.2° (Epoch: 26 November)

Event Time Altitude Azimuth Distance (km) Brightness Sun altitude
Rises 06:57:40 0° 267° (W) 4,813 9.5 7.2°
Reaches altitude 10° 07:00:44 10° 265° (W) 3,851 9.1 7.7°
Maximum altitude 07:10:32 71° 185° (S) 1,744 8.1 9.1°
Drops below altitude 10° 07:20:36 10° 105° (ESE) 3,943 12.3 10.6°
Sets 07:23:48 0° 103° (ESE) 4,933 12.1 11.0°
